Location: Bartlow
(52.0833°N, 0.3167°E)
Time: 04:06:09
(UTC+00:00)

ATLAS 3B R/B - Pass Details

Date: 26 September 2023
Orbit: 954 x 1241 km, 63.8° (Epoch: 27 October)

Event Time Altitude Azimuth Distance (km) Brightness Sun altitude
Rises 01:52:32 0° 306° (NW) 4,060 5.7 -33.0°
Reaches altitude 10° 01:55:22 10° 313° (NW) 3,130 5.2 -32.7°
Maximum altitude 02:02:38 46° 26° (NNE) 1,602 3.9 -32.0°
Drops below altitude 10° 02:10:06 10° 98° (E) 3,211 5.5 -31.2°
Sets 02:13:03 0° 105° (ESE) 4,173 6.1 -30.9°
